Change the Weather History Date:

Friday, November 14, 2014

  Actual Average Record
Temperature  
Mean Temperature 47 °F -  
Max Temperature 53 °F 39 °F 64 °F (2010)
Min Temperature 41 °F 29 °F 23 °F (2003)
Degree Days  
Heating Degree Days 18    
Moisture  
Dew Point 46 °F    
Average Humidity 86    
Maximum Humidity 100    
Minimum Humidity 71    
Precipitation  
Precipitation 0.00 in 0.04 in - ()
Sea Level Pressure  
Sea Level Pressure 29.93 in    
Wind  
Wind Speed 6 mph ()    
Max Wind Speed 15 mph    
Max Gust Speed -    
Visibility 4.7 miles    
Events      
Averages and records for this station are not official NWS values.
T = Trace of Precipitation, MM = Missing Value Source: Averaged Metar Reports

Daily Weather History Graph

Daily Weather History Graph

Search for Another Location

Airport or City:

Trip Planner

Search our weather history database for the weather conditions in past years. The results will help you decide how hot, cold, wet, or windy it might be!

Date:

Astronomy

Nov. 14, 2014 Rise Set
Actual Time 7:14 AM CET 4:20 PM CET
Civil Twilight 6:38 AM CET 4:55 PM CET
Nautical Twilight 5:59 AM CET 5:34 PM CET
Astronomical Twilight 5:21 AM CET 6:12 PM CET
Moon 11:30 PM CET (11/14) 12:45 PM CET (11/14)
Length of Visible Light 10h 16m
Length of Day
9h 05m
Waning Gibbous, 52% of the Moon is Illuminated
Nov 14
Waning Gibbous
Nov 14
Last Quarter
Nov 22
New
Nov 29
First Quarter
Dec 6
Full

Hourly Weather History & Observations

Time (CET) Temp. Windchill Dew Point Humidity Pressure Visibility Wind Dir Wind Speed Gust Speed Precip Events Conditions
12:00 AM 49 °F - 47 °F 88% 30.00 in 4 mi East 4.5 mph - -   Mist
12:00 AM 48.2 °F - 46.4 °F 93% 29.98 in 5.0 mi East 5.8 mph - N/A   Overcast
12:30 AM 50.0 °F - 46.4 °F 87% 29.98 in 4.3 mi East 3.5 mph - N/A   Overcast
1:00 AM 49 °F - 47 °F 88% 30.00 in 4 mi East 4.5 mph - -   Mist
1:00 AM 48.2 °F - 46.4 °F 93% 29.98 in 4.3 mi East 2.3 mph - N/A   Overcast
1:30 AM 48.2 °F - 46.4 °F 93% 29.98 in 4.3 mi East 3.5 mph - N/A   Overcast
2:00 AM 48 °F - 47 °F 94% 30.00 in 4 mi East 4.5 mph - -   Mist
2:00 AM 48.2 °F - 46.4 °F 93% 29.98 in 3.7 mi East 3.5 mph - N/A   Overcast
2:30 AM 48.2 °F - 46.4 °F 93% 29.98 in 3.7 mi East 4.6 mph - N/A   Overcast
3:00 AM 48 °F - 47 °F 94% 30.00 in 4 mi East 4.5 mph - -   Mist
3:00 AM 48.2 °F - 46.4 °F 93% 29.98 in 3.7 mi East 3.5 mph - N/A   Overcast
3:30 AM 48.2 °F - 46.4 °F 93% 29.98 in 3.7 mi East 4.6 mph - N/A   Overcast
4:00 AM 49 °F - 47 °F 88% 30.00 in 4 mi East 4.5 mph - -   Mist
4:00 AM 48.2 °F - 46.4 °F 93% 29.98 in 3.7 mi ENE 3.5 mph - N/A   Overcast
4:30 AM 48.2 °F - 46.4 °F 93% 29.98 in 4.3 mi East 4.6 mph - N/A   Overcast
5:00 AM 48 °F - 47 °F 93% 30.00 in 4 mi East 4.5 mph - -   Mist
5:00 AM 48.2 °F - 46.4 °F 93% 29.98 in 4.3 mi East 4.6 mph - N/A   Overcast
5:30 AM 48.2 °F - 46.4 °F 93% 29.98 in 4.3 mi East 3.5 mph - N/A   Overcast
6:00 AM 46 °F - 44 °F 91% 29.99 in 4 mi East 6.7 mph - -   Mist
6:00 AM 44.6 °F 40.7 °F 42.8 °F 93% 29.95 in 4.3 mi East 6.9 mph - N/A   Partly Cloudy
6:30 AM 42.8 °F 38.6 °F 41.0 °F 93% 29.98 in 3.7 mi East 6.9 mph - N/A   Scattered Clouds
7:00 AM 44 °F - 43 °F 95% 30.01 in 2 mi East 4.5 mph - -   Mist
7:00 AM 44.6 °F 40.7 °F 42.8 °F 93% 29.98 in - East 6.9 mph - N/A   Partly Cloudy
7:30 AM 42.8 °F 38.6 °F 42.8 °F 100% 29.98 in - East 6.9 mph - N/A   Mist
8:00 AM 41 °F - 40 °F 96% 30.01 in 2 mi East 6.7 mph - -   Mist
8:00 AM 41.0 °F 36.4 °F 41.0 °F 100% 29.98 in 1.7 mi East 6.9 mph - N/A   Partly Cloudy
8:30 AM 44.6 °F 41.4 °F 42.8 °F 93% 29.98 in 1.9 mi East 5.8 mph - N/A   Mist
9:00 AM 46 °F - 45 °F 96% 29.99 in 2 mi East 6.7 mph - -   Mist
9:00 AM 46.4 °F 43.5 °F 44.6 °F 93% 29.98 in 2.5 mi East 5.8 mph - N/A   Mist
9:30 AM 48.2 °F - 44.6 °F 87% 29.95 in 3.7 mi ESE 6.9 mph - N/A   Unknown
10:00 AM 49 °F - 45 °F 83% 29.97 in 4 mi East 8.9 mph - -   Mist
10:00 AM 48.2 °F - 44.6 °F 87% 29.95 in 3.7 mi ESE 6.9 mph - N/A   Unknown
10:30 AM 50.0 °F - 44.6 °F 82% 29.95 in 4.3 mi East 8.1 mph - N/A   Unknown
11:00 AM 51 °F - 45 °F 74% 29.96 in 5 mi East 6.7 mph - -   Mist
11:00 AM 50.0 °F - 46.4 °F 87% 29.95 in 5.0 mi East 8.1 mph - N/A   Unknown
11:30 AM 51.8 °F - 46.4 °F 82% 29.92 in 5.0 mi East 6.9 mph - N/A   Unknown
12:00 PM 53 °F - 46 °F 71% 29.93 in 5 mi East 6.7 mph - -   Mist
12:00 PM 51.8 °F - 46.4 °F 82% 29.92 in 5.0 mi East 5.8 mph - N/A   Unknown
12:30 PM 53.6 °F - 46.4 °F 77% 29.89 in 5.0 mi ENE 9.2 mph - N/A   Unknown
1:00 PM 53 °F - 46 °F 71% 29.92 in 5 mi East 8.9 mph - -   Mist
1:00 PM 53.6 °F - 46.4 °F 77% 29.92 in 5.0 mi East 8.1 mph - N/A   Partly Cloudy
1:30 PM 51.8 °F - 46.4 °F 82% 29.89 in 4.3 mi East 9.2 mph - N/A   Mostly Cloudy
2:00 PM 52 °F - 46 °F 75% 29.91 in 4 mi East 11.2 mph - -   Mist
2:00 PM 51.8 °F - 46.4 °F 82% 29.89 in 4.3 mi East 10.4 mph - N/A   Mostly Cloudy
2:30 PM 51.8 °F - 46.4 °F 82% 29.89 in 4.3 mi East 10.4 mph - N/A   Overcast
3:00 PM 52 °F - 47 °F 77% 29.90 in 4 mi East 8.9 mph - -   Mist
3:00 PM 51.8 °F - 46.4 °F 82% 29.89 in 4.3 mi East 9.2 mph - N/A   Overcast
3:30 PM 51.8 °F - 46.4 °F 82% 29.89 in 5.0 mi East 6.9 mph - N/A   Overcast
4:00 PM 53 °F - 47 °F 72% 29.89 in 6 mi ESE 8.9 mph - -   Mist
4:00 PM 53.6 °F - 46.4 °F 77% 29.89 in 5.6 mi ESE 9.2 mph - N/A   Overcast
4:30 PM 51.8 °F - 46.4 °F 82% 29.86 in 6.2 mi ESE 8.1 mph - N/A   Overcast
5:00 PM 52 °F - 47 °F 76% 29.88 in 7 mi East 8.9 mph - -   Overcast
5:00 PM 51.8 °F - 46.4 °F 82% 29.86 in 6.2 mi ESE 6.9 mph - N/A   Overcast
5:30 PM 51.8 °F - 46.4 °F 82% 29.86 in 6.2 mi ESE 11.5 mph - N/A   Overcast
6:00 PM 52 °F - 46 °F 71% 29.88 in 7 mi SE 11.2 mph - -   Overcast
6:00 PM 51.8 °F - 46.4 °F 82% 29.86 in 6.2 mi SE 15.0 mph - N/A   Overcast
6:30 PM 51.8 °F - 46.4 °F 82% 29.86 in 6.2 mi SE 9.2 mph - N/A   Overcast
7:00 PM 52 °F - 46 °F 75% 29.88 in 7 mi ESE 6.7 mph - -   Overcast
7:00 PM 51.8 °F - 46.4 °F 82% 29.86 in 6.2 mi ESE 6.9 mph - N/A   Overcast
7:30 PM 51.8 °F - 46.4 °F 82% 29.86 in 6.2 mi East 6.9 mph - N/A   Overcast
8:00 PM 51 °F - 47 °F 80% 29.88 in 6 mi East 6.7 mph - -   Mist
8:00 PM 51.8 °F - 46.4 °F 82% 29.86 in 5.6 mi East 6.9 mph - N/A   Overcast
8:30 PM 51.8 °F - 46.4 °F 82% 29.86 in 5.6 mi East 8.1 mph - N/A   Overcast
9:00 PM 51 °F - 47 °F 83% 29.87 in 6 mi East 8.9 mph - -   Mist
9:00 PM 51.8 °F - 46.4 °F 82% 29.86 in 5.6 mi East 9.2 mph - N/A   Overcast
9:30 PM 51.8 °F - 48.2 °F 88% 29.86 in 5.6 mi East 6.9 mph - N/A   Overcast
10:00 PM 51 °F - 47 °F 83% 29.87 in 6 mi East 6.7 mph - -   Mist
10:00 PM 51.8 °F - 48.2 °F 88% 29.86 in 5.6 mi East 5.8 mph - N/A   Overcast
10:30 PM 51.8 °F - 48.2 °F 88% 29.83 in 5.6 mi East 6.9 mph - N/A   Overcast
11:00 PM 51 °F - 47 °F 83% 29.86 in 6 mi East 6.7 mph - -   Mist
11:00 PM 50.0 °F - 48.2 °F 94% 29.83 in 5.6 mi East 6.9 mph - N/A   Overcast
11:30 PM 50.0 °F - 46.4 °F 87% 29.83 in 5.6 mi East 8.1 mph - N/A   Overcast